Weather in Borovlyanka

Russia / Altai Krai     52°37′58″N   84°26′48″E
temp.,
°C
wind,
m/s
gust,
m/s
humid.,
%
clouds,
%
prec.,
mm/h
press.,
hPa
HPBL,
m
13 june, sun
sun1300:00+9sw2397100 0.1 101689
03:00+8w249878 0.0 1016115
06:00+9wnw24865 0.0 1017135
09:00+16wnw235594 0.0 1016822
12:00+20nnw243655 0.0 10152566
15:00+21n3432100 0.0 10142546
18:00+20nw2548100 0.0 1015898
21:00+13nw238189 0.0 101641
14 june, mon
mon1400:00+13wnw2288100 0.1 101744
03:00+12wsw249348 0.0 1016114
06:00+13wsw138990 0.0 1017218
09:00+13wsw139696 0.5 1018207
12:00+14nw1192100 0.6 1018295
15:00+20nne236492 0.3 10181177
18:00+19nne35621 0.8 10181265
21:00+14ne36820 0.0 1018113
15 june, tue
tue1500:00+11ne358511 0.0 101893
03:00+10ne24816 0.0 101864
06:00+12ne24745 0.0 1019140
09:00+18ne35505 0.0 1019847
12:00+20ne44490 0.0 10181312
15:00+22ene44475 0.0 10171552
18:00+21ne23545 0.0 10171194
21:00+15nne227193 0.0 101711
16 june, wed
wed1600:00+13ne1175100 0.0 101710
03:00+12se11812 0.0 101711
06:00+14se117587 0.0 101751
09:00+21sse11548 0.0 1016525
12:00+25ne11445 0.0 10151457
15:00+26e22420 0.0 10141680
18:00+25e115395 0.0 1013402
21:00+18s228045 0.0 101325
17 june, thu
thu1700:00+16s118713 0.0 101311
03:00+14sse22915 0.0 101322
06:00+17sse1283100 0.0 101379
09:00+23sse1258100 0.0 1012561
12:00+27se12435 0.0 10101427
15:00+28se13375 0.0 10082196
18:00+27wnw134820 0.0 1007960
21:00+16nw22909 0.6 100925